Weather History for KMQY - July, 2013

Change the Weather History Date:

Thursday, July 11, 2013

  Actual Average Record
Temperature  
Mean Temperature 79 °F -  
Max Temperature 90 °F 85 °F 101 °F (2011)
Min Temperature 68 °F 68 °F 63 °F (2014)
Cooling Degree Days 14    
Growing Degree Days 29 (Base 50)    
Moisture  
Dew Point 71 °F    
Average Humidity 88    
Maximum Humidity 100    
Minimum Humidity 52    
Precipitation  
Precipitation 0.00 in - - ()
Sea Level Pressure  
Sea Level Pressure 29.97 in    
Wind  
Wind Speed 2 mph (NNE)    
Max Wind Speed 15 mph    
Max Gust Speed -    
Visibility 6 miles    
Events Fog , Thunderstorm    
Averages and records for this station are not official NWS values.
T = Trace of Precipitation, MM = Missing Value Source: NWS Daily Summary

Daily Weather History Graph

Daily Weather History Graph

Search for Another Location

Airport or City:

Trip Planner

Search our weather history database for the weather conditions in past years. The results will help you decide how hot, cold, wet, or windy it might be!

Date:

Astronomy

Jul. 11, 2013 Rise Set
Actual Time 5:38 AM CDT 8:04 PM CDT
Civil Twilight 5:08 AM CDT 8:34 PM CDT
Nautical Twilight 4:32 AM CDT 9:10 PM CDT
Astronomical Twilight 3:51 AM CDT 9:50 PM CDT
Moon 8:48 AM CDT (7/11) 9:53 PM CDT (7/11)
Length of Visible Light 15h 25m
Length of Day
14h 26m
Waxing Crescent, 11% of the Moon is Illuminated
Jul 11
Waxing Crescent
Jul 15
First Quarter
Jul 22
Full
Jul 29
Last Quarter
Aug 6
New

Hourly Weather History & Observations

Time (CDT) Temp. Heat Index Dew Point Humidity Pressure Visibility Wind Dir Wind Speed Gust Speed Precip Events Conditions
12:08 AM 73.4 °F - 71.6 °F 94% 29.99 in 10.0 mi South 4.6 mph - N/A   Clear
12:56 AM 72.0 °F - 70.9 °F 96% 29.99 in 10.0 mi Calm Calm - N/A   Clear
1:56 AM 72.0 °F - 70.9 °F 96% 29.98 in 9.0 mi Calm Calm - N/A   Clear
2:56 AM 70.9 °F - 70.9 °F 100% 29.98 in 10.0 mi SE 3.5 mph - N/A   Clear
3:56 AM 70.9 °F - 70.9 °F 100% 29.97 in 4.0 mi Calm Calm - N/A   Clear
4:42 AM 69.8 °F - 69.8 °F 100% 29.96 in 1.8 mi Calm Calm - N/A   Clear
4:44 AM 69.8 °F - 69.8 °F 100% 29.96 in 1.0 mi Calm Calm - N/A   Clear
4:47 AM 69.8 °F - 69.8 °F 100% 29.96 in 0.5 mi Calm Calm - N/A Fog Fog
4:56 AM 68.9 °F - 68.9 °F 100% 29.97 in 0.5 mi Calm Calm - N/A Fog Fog
5:08 AM 69.8 °F - 69.8 °F 100% 29.96 in 0.8 mi Calm Calm - N/A   Clear
5:12 AM 69.8 °F - 69.8 °F 100% 29.97 in 1.2 mi Calm Calm - N/A   Clear
5:17 AM 69.8 °F - 69.8 °F 100% 29.97 in 2.0 mi NNW 3.5 mph - N/A   Clear
5:27 AM 69.8 °F - 69.8 °F 100% 29.97 in 10.0 mi North 3.5 mph - N/A   Clear
5:56 AM 68.9 °F - 68.9 °F 100% 29.98 in 0.2 mi Calm Calm - N/A Fog Fog
6:03 AM 69.8 °F - 69.8 °F 100% 29.97 in 0.2 mi Calm Calm - N/A Fog Fog
6:16 AM 69.8 °F - 69.8 °F 100% 29.97 in 0.2 mi Calm Calm - N/A Fog Fog
6:21 AM 69.8 °F - 69.8 °F 100% 29.97 in 0.8 mi Calm Calm - N/A   Clear
6:23 AM 69.8 °F - 69.8 °F 100% 29.97 in 1.2 mi SSE 3.5 mph - N/A   Mostly Cloudy
6:25 AM 69.8 °F - 69.8 °F 100% 29.97 in 3.0 mi SSE 3.5 mph - N/A   Partly Cloudy
6:38 AM 71.6 °F - 71.6 °F 100% 29.97 in 7.0 mi SSE 3.5 mph - N/A   Mostly Cloudy
6:44 AM 71.6 °F - 71.6 °F 100% 29.97 in 5.0 mi Calm Calm - N/A Fog Scattered Clouds
6:56 AM 72.0 °F - 72.0 °F 100% 29.99 in 5.0 mi Calm Calm - N/A Fog Scattered Clouds
7:20 AM 73.4 °F - 73.4 °F 100% 29.98 in 3.0 mi Calm Calm - N/A Fog Mostly Cloudy
7:56 AM 74.8 °F - 72.0 °F 91% 30.00 in 5.0 mi NNE 3.5 mph - N/A Fog Mostly Cloudy
8:56 AM 77.9 °F - 72.9 °F 84% 30.00 in 10.0 mi ENE 3.5 mph - N/A   Mostly Cloudy
9:56 AM 81.0 °F 86.2 °F 73.9 °F 79% 30.00 in 10.0 mi ENE 4.6 mph - N/A   Mostly Cloudy
10:06 AM 80.6 °F 85.4 °F 73.4 °F 79% 29.99 in 10.0 mi Calm Calm - N/A   Scattered Clouds
10:56 AM 84.9 °F 92.1 °F 73.9 °F 69% 30.00 in 10.0 mi NNE 5.8 mph - N/A   Scattered Clouds
11:56 AM 86.9 °F 94.1 °F 72.9 °F 63% 29.99 in 10.0 mi NE 5.8 mph - N/A   Partly Cloudy
12:56 PM 88.0 °F 94.7 °F 72.0 °F 59% 29.98 in 10.0 mi Variable 3.5 mph - N/A   Scattered Clouds
1:56 PM 90.0 °F 95.9 °F 70.9 °F 53% 29.95 in 10.0 mi Calm Calm - N/A   Scattered Clouds
2:56 PM 90.0 °F 95.4 °F 70.0 °F 52% 29.95 in 10.0 mi Calm Calm - N/A   Scattered Clouds
3:28 PM 87.8 °F 92.6 °F 69.8 °F 55% 29.95 in 10.0 mi North 9.2 mph - N/A Thunderstorm Thunderstorm
3:56 PM 81.0 °F 84.7 °F 70.9 °F 71% 29.96 in 10.0 mi North 15.0 mph - N/A Thunderstorm Thunderstorm
4:56 PM 82.9 °F 89.4 °F 73.9 °F 74% 29.95 in 10.0 mi NNE 13.8 mph - 0.00 in   Clear
5:56 PM 81.0 °F 84.7 °F 70.9 °F 71% 29.95 in 10.0 mi North 6.9 mph - N/A   Scattered Clouds
6:56 PM 79.9 °F - 70.9 °F 74% 29.94 in 10.0 mi North 5.8 mph - N/A   Clear
7:56 PM 79.9 °F - 72.9 °F 79% 29.95 in 10.0 mi North 6.9 mph - N/A   Scattered Clouds
8:56 PM 77.9 °F - 72.0 °F 82% 29.96 in 10.0 mi North 6.9 mph - N/A   Partly Cloudy